Time,TemperatureF,DewpointF,PressureIn,WindDirection,WindDirectionDegrees,WindSpeedMPH,WindSpeedGustMPH,Humidity,HourlyPrecipIn,Conditions,Clouds,dailyrainin,SolarRadiationWatts/m^2,SoftwareType,DateUTC
2013-02-03 00:01:00,65.0,53.0,-100.00,ENE,71,16.0,29.0,64,0.00,,,0.00,1.000000,,2013-02-03 10:01:00,
2013-02-03 00:11:00,65.0,53.0,-100.00,ENE,71,16.0,29.0,64,0.00,,,0.00,1.000000,,2013-02-03 10:11:00,
2013-02-03 00:21:00,65.0,53.0,-100.00,ENE,71,16.0,29.0,64,0.00,,,0.00,1.000000,,2013-02-03 10:21:00,
2013-02-03 00:31:00,65.0,53.0,-100.00,ENE,71,16.0,29.0,64,0.00,,,0.00,1.000000,,2013-02-03 10:31:00,
2013-02-03 00:52:00,62.0,50.0,-100.00,East,96,17.0,22.0,64,0.00,,,0.00,1.000000,,2013-02-03 10:52:00,
2013-02-03 01:02:00,62.0,50.0,-100.00,East,96,17.0,22.0,64,0.00,,,0.00,1.000000,,2013-02-03 11:02:00,
2013-02-03 01:11:00,62.0,50.0,-100.00,East,96,17.0,22.0,64,0.00,,,0.00,1.000000,,2013-02-03 11:11:00,
2013-02-03 01:22:00,62.0,50.0,-100.00,East,96,17.0,22.0,64,0.00,,,0.00,1.000000,,2013-02-03 11:22:00,
2013-02-03 01:31:00,62.0,50.0,-100.00,East,96,17.0,22.0,64,0.00,,,0.00,1.000000,,2013-02-03 11:31:00,
2013-02-03 01:52:00,62.0,51.0,-100.00,East,94,17.0,22.0,68,0.00,,,0.00,1.000000,,2013-02-03 11:52:00,
2013-02-03 02:02:00,62.0,51.0,-100.00,East,94,17.0,22.0,68,0.00,,,0.00,1.000000,,2013-02-03 12:02:00,
2013-02-03 02:11:00,62.0,51.0,-100.00,East,94,17.0,22.0,68,0.00,,,0.00,1.000000,,2013-02-03 12:11:00,
2013-02-03 02:22:00,62.0,51.0,-100.00,East,94,17.0,22.0,68,0.00,,,0.00,1.000000,,2013-02-03 12:22:00,
2013-02-03 02:32:00,62.0,51.0,-100.00,East,94,17.0,22.0,68,0.00,,,0.00,1.000000,,2013-02-03 12:32:00,
2013-02-03 03:03:00,63.0,53.0,-100.00,East,90,16.0,25.0,69,0.00,,,0.00,1.000000,,2013-02-03 13:03:00,
2013-02-03 03:11:00,63.0,53.0,-100.00,East,90,16.0,25.0,69,0.00,,,0.00,1.000000,,2013-02-03 13:11:00,
2013-02-03 03:21:00,63.0,53.0,-100.00,East,90,16.0,25.0,69,0.00,,,0.00,1.000000,,2013-02-03 13:21:00,
2013-02-03 03:32:00,63.0,53.0,-100.00,East,90,16.0,25.0,69,0.00,,,0.00,1.000000,,2013-02-03 13:32:00,
2013-02-03 04:02:00,62.0,52.0,-100.00,East,94,18.0,25.0,69,0.00,,,0.00,1.000000,,2013-02-03 14:02:00,
2013-02-03 04:11:00,62.0,52.0,-100.00,East,94,18.0,25.0,69,0.00,,,0.00,1.000000,,2013-02-03 14:11:00,
2013-02-03 04:21:00,62.0,52.0,-100.00,East,94,18.0,25.0,69,0.00,,,0.00,1.000000,,2013-02-03 14:21:00,
2013-02-03 04:31:00,62.0,52.0,-100.00,East,94,18.0,25.0,69,0.00,,,0.00,1.000000,,2013-02-03 14:31:00,
2013-02-03 05:03:00,62.0,52.0,-100.00,East,84,18.0,25.0,70,0.00,,,0.00,1.000000,,2013-02-03 15:03:00,
2013-02-03 05:11:00,62.0,52.0,-100.00,East,84,18.0,25.0,70,0.00,,,0.00,1.000000,,2013-02-03 15:11:00,
2013-02-03 05:21:00,62.0,52.0,-100.00,East,84,18.0,25.0,70,0.00,,,0.00,1.000000,,2013-02-03 15:21:00,
2013-02-03 05:32:00,62.0,52.0,-100.00,East,84,18.0,25.0,70,0.00,,,0.00,1.000000,,2013-02-03 15:32:00,
2013-02-03 06:02:00,63.0,53.0,-100.00,ENE,77,19.0,27.0,71,0.00,,,0.00,1.000000,,2013-02-03 16:02:00,
2013-02-03 06:11:00,63.0,53.0,-100.00,ENE,77,19.0,27.0,71,0.00,,,0.00,1.000000,,2013-02-03 16:11:00,
2013-02-03 06:21:00,63.0,53.0,-100.00,ENE,77,19.0,27.0,71,0.00,,,0.00,1.000000,,2013-02-03 16:21:00,
2013-02-03 06:32:00,63.0,53.0,-100.00,ENE,77,19.0,27.0,71,0.00,,,0.00,1.000000,,2013-02-03 16:32:00,
2013-02-03 07:02:00,63.0,53.0,-100.00,East,83,19.0,29.0,70,0.00,,,0.00,1.000000,,2013-02-03 17:02:00,
2013-02-03 07:11:00,63.0,53.0,-100.00,East,83,19.0,29.0,70,0.00,,,0.00,1.000000,,2013-02-03 17:11:00,
2013-02-03 07:21:00,63.0,53.0,-100.00,East,83,19.0,29.0,70,0.00,,,0.00,1.000000,,2013-02-03 17:21:00,
2013-02-03 07:31:00,63.0,53.0,-100.00,East,83,19.0,29.0,70,0.00,,,0.00,1.000000,,2013-02-03 17:31:00,
2013-02-03 07:52:00,63.0,53.0,-100.00,ENE,73,19.0,27.0,69,0.00,,,0.00,9.000000,,2013-02-03 17:52:00,
2013-02-03 08:02:00,63.0,53.0,-100.00,ENE,73,19.0,27.0,69,0.00,,,0.00,9.000000,,2013-02-03 18:02:00,
2013-02-03 08:11:00,63.0,53.0,-100.00,ENE,73,19.0,27.0,69,0.00,,,0.00,9.000000,,2013-02-03 18:11:00,
2013-02-03 08:23:00,63.0,53.0,-100.00,ENE,73,19.0,27.0,69,0.00,,,0.00,9.000000,,2013-02-03 18:23:00,
2013-02-03 08:32:00,63.0,53.0,-100.00,ENE,73,19.0,27.0,69,0.00,,,0.00,9.000000,,2013-02-03 18:32:00,
2013-02-03 09:02:00,67.0,54.0,-100.00,ENE,76,19.0,25.0,63,0.00,,,0.00,173.000000,,2013-02-03 19:02:00,
2013-02-03 09:11:00,67.0,54.0,-100.00,ENE,76,19.0,25.0,63,0.00,,,0.00,173.000000,,2013-02-03 19:11:00,
2013-02-03 09:21:00,67.0,54.0,-100.00,ENE,76,19.0,25.0,63,0.00,,,0.00,173.000000,,2013-02-03 19:21:00,
2013-02-03 09:31:00,67.0,54.0,-100.00,ENE,76,19.0,25.0,63,0.00,,,0.00,173.000000,,2013-02-03 19:31:00,
2013-02-03 10:01:00,71.0,54.0,-100.00,East,83,19.0,27.0,56,0.00,,,0.00,445.000000,,2013-02-03 20:01:00,
2013-02-03 10:11:00,71.0,54.0,-100.00,East,83,19.0,27.0,56,0.00,,,0.00,445.000000,,2013-02-03 20:11:00,
2013-02-03 10:21:00,71.0,54.0,-100.00,East,83,19.0,27.0,56,0.00,,,0.00,445.000000,,2013-02-03 20:21:00,
2013-02-03 10:32:00,71.0,54.0,-100.00,East,83,19.0,27.0,56,0.00,,,0.00,445.000000,,2013-02-03 20:32:00,
2013-02-03 11:03:00,74.0,52.0,-100.00,NW,326,5.0,25.0,47,0.00,,,0.00,647.000000,,2013-02-03 21:03:00,
2013-02-03 11:11:00,74.0,52.0,-100.00,NW,326,5.0,25.0,47,0.00,,,0.00,647.000000,,2013-02-03 21:11:00,
2013-02-03 11:21:00,74.0,52.0,-100.00,NW,326,5.0,25.0,47,0.00,,,0.00,647.000000,,2013-02-03 21:21:00,
2013-02-03 11:32:00,74.0,52.0,-100.00,NW,326,5.0,25.0,47,0.00,,,0.00,647.000000,,2013-02-03 21:32:00,
2013-02-03 11:52:00,76.0,56.0,-100.00,NW,312,6.0,16.0,50,0.00,,,0.00,783.000000,,2013-02-03 21:52:00,
2013-02-03 12:01:00,76.0,56.0,-100.00,NW,312,6.0,16.0,50,0.00,,,0.00,783.000000,,2013-02-03 22:01:00,
2013-02-03 12:11:00,76.0,56.0,-100.00,NW,312,6.0,16.0,50,0.00,,,0.00,783.000000,,2013-02-03 22:11:00,
2013-02-03 12:21:00,76.0,56.0,-100.00,NW,312,6.0,16.0,50,0.00,,,0.00,783.000000,,2013-02-03 22:21:00,
2013-02-03 12:31:00,76.0,56.0,-100.00,NW,312,6.0,16.0,50,0.00,,,0.00,783.000000,,2013-02-03 22:31:00,
2013-02-03 13:01:00,77.0,55.0,-100.00,NW,324,6.0,15.0,46,0.00,,,0.00,868.000000,,2013-02-03 23:01:00,
2013-02-03 13:11:00,77.0,55.0,-100.00,NW,324,6.0,15.0,46,0.00,,,0.00,868.000000,,2013-02-03 23:11:00,
2013-02-03 13:21:00,77.0,55.0,-100.00,NW,324,6.0,15.0,46,0.00,,,0.00,868.000000,,2013-02-03 23:21:00,
2013-02-03 13:32:00,77.0,55.0,-100.00,NW,324,6.0,15.0,46,0.00,,,0.00,868.000000,,2013-02-03 23:32:00,
2013-02-03 14:01:00,80.0,55.0,-100.00,SW,229,8.0,14.0,42,0.00,,,0.00,865.000000,,2013-02-04 00:01:00,
2013-02-03 14:11:00,80.0,55.0,-100.00,SW,229,8.0,14.0,42,0.00,,,0.00,865.000000,,2013-02-04 00:11:00,
2013-02-03 14:21:00,80.0,55.0,-100.00,SW,229,8.0,14.0,42,0.00,,,0.00,865.000000,,2013-02-04 00:21:00,
2013-02-03 14:31:00,80.0,55.0,-100.00,SW,229,8.0,14.0,42,0.00,,,0.00,865.000000,,2013-02-04 00:31:00,
2013-02-03 15:01:00,79.0,56.0,-100.00,West,272,13.0,20.0,46,0.00,,,0.00,787.000000,,2013-02-04 01:01:00,
2013-02-03 15:11:00,79.0,56.0,-100.00,West,272,13.0,20.0,46,0.00,,,0.00,787.000000,,2013-02-04 01:11:00,
2013-02-03 15:21:00,79.0,56.0,-100.00,West,272,13.0,20.0,46,0.00,,,0.00,787.000000,,2013-02-04 01:21:00,
2013-02-03 15:31:00,79.0,56.0,-100.00,West,272,13.0,20.0,46,0.00,,,0.00,787.000000,,2013-02-04 01:31:00,
2013-02-03 15:52:00,77.0,57.0,-100.00,West,264,13.0,19.0,51,0.00,,,0.00,636.000000,,2013-02-04 01:52:00,
2013-02-03 16:01:00,77.0,57.0,-100.00,West,264,13.0,19.0,51,0.00,,,0.00,636.000000,,2013-02-04 02:01:00,
2013-02-03 16:11:00,77.0,57.0,-100.00,West,264,13.0,19.0,51,0.00,,,0.00,636.000000,,2013-02-04 02:11:00,
2013-02-03 16:21:00,77.0,57.0,-100.00,West,264,13.0,19.0,51,0.00,,,0.00,636.000000,,2013-02-04 02:21:00,
2013-02-03 16:31:00,77.0,57.0,-100.00,West,264,13.0,19.0,51,0.00,,,0.00,636.000000,,2013-02-04 02:31:00,
2013-02-03 16:52:00,75.0,59.0,-100.00,West,266,5.0,19.0,58,0.00,,,0.00,376.000000,,2013-02-04 02:52:00,
2013-02-03 17:02:00,75.0,59.0,-100.00,West,266,5.0,19.0,58,0.00,,,0.00,376.000000,,2013-02-04 03:02:00,
2013-02-03 17:11:00,75.0,59.0,-100.00,West,266,5.0,19.0,58,0.00,,,0.00,376.000000,,2013-02-04 03:11:00,
2013-02-03 17:21:00,75.0,59.0,-100.00,West,266,5.0,19.0,58,0.00,,,0.00,376.000000,,2013-02-04 03:21:00,
2013-02-03 17:31:00,75.0,59.0,-100.00,West,266,5.0,19.0,58,0.00,,,0.00,376.000000,,2013-02-04 03:31:00,
2013-02-03 17:52:00,72.0,54.0,-100.00,ENE,69,21.0,34.0,54,0.00,,,0.00,153.000000,,2013-02-04 03:52:00,
2013-02-03 18:01:00,72.0,54.0,-100.00,ENE,69,21.0,34.0,54,0.00,,,0.00,153.000000,,2013-02-04 04:01:00,
2013-02-03 18:11:00,72.0,54.0,-100.00,ENE,69,21.0,34.0,54,0.00,,,0.00,153.000000,,2013-02-04 04:11:00,
2013-02-03 18:21:00,72.0,54.0,-100.00,ENE,69,21.0,34.0,54,0.00,,,0.00,153.000000,,2013-02-04 04:21:00,
2013-02-03 18:31:00,72.0,54.0,-100.00,ENE,69,21.0,34.0,54,0.00,,,0.00,153.000000,,2013-02-04 04:31:00,
2013-02-03 19:03:00,69.0,54.0,-100.00,ENE,78,21.0,33.0,59,0.00,,,-99.99,35.000000,,2013-02-04 05:03:00,
2013-02-03 19:11:00,69.0,54.0,-100.00,ENE,78,21.0,33.0,59,0.00,,,-99.99,35.000000,,2013-02-04 05:11:00,
2013-02-03 19:22:00,69.0,54.0,-100.00,ENE,78,21.0,33.0,59,0.00,,,-99.99,35.000000,,2013-02-04 05:22:00,
2013-02-03 19:33:00,69.0,54.0,-100.00,ENE,78,21.0,33.0,59,0.00,,,-99.99,35.000000,,2013-02-04 05:33:00,
2013-02-03 20:01:00,68.0,54.0,-100.00,ENE,75,27.0,39.0,62,0.00,,,0.00,1.000000,,2013-02-04 06:01:00,
2013-02-03 20:11:00,68.0,54.0,-100.00,ENE,75,27.0,39.0,62,0.00,,,0.00,1.000000,,2013-02-04 06:11:00,
2013-02-03 20:21:00,68.0,54.0,-100.00,ENE,75,27.0,39.0,62,0.00,,,0.00,1.000000,,2013-02-04 06:21:00,
2013-02-03 20:31:00,68.0,54.0,-100.00,ENE,75,27.0,39.0,62,0.00,,,0.00,1.000000,,2013-02-04 06:31:00,
2013-02-03 20:52:00,68.0,54.0,-100.00,ENE,70,16.0,35.0,62,0.00,,,0.00,1.000000,,2013-02-04 06:52:00,
2013-02-03 21:01:00,68.0,54.0,-100.00,ENE,70,16.0,35.0,62,0.00,,,0.00,1.000000,,2013-02-04 07:01:00,
2013-02-03 21:11:00,68.0,54.0,-100.00,ENE,70,16.0,35.0,62,0.00,,,0.00,1.000000,,2013-02-04 07:11:00,
2013-02-03 21:21:00,68.0,54.0,-100.00,ENE,70,16.0,35.0,62,0.00,,,0.00,1.000000,,2013-02-04 07:21:00,
2013-02-03 21:31:00,68.0,54.0,-100.00,ENE,70,16.0,35.0,62,0.00,,,0.00,1.000000,,2013-02-04 07:31:00,
2013-02-03 21:52:00,68.0,56.0,-100.00,NNW,344,6.0,26.0,66,0.00,,,0.00,1.000000,,2013-02-04 07:52:00,
2013-02-03 22:01:00,68.0,56.0,-100.00,NNW,344,6.0,26.0,66,0.00,,,0.00,1.000000,,2013-02-04 08:01:00,
2013-02-03 22:11:00,68.0,56.0,-100.00,NNW,344,6.0,26.0,66,0.00,,,0.00,1.000000,,2013-02-04 08:11:00,
2013-02-03 22:21:00,68.0,56.0,-100.00,NNW,344,6.0,26.0,66,0.00,,,0.00,1.000000,,2013-02-04 08:21:00,
2013-02-03 22:31:00,68.0,56.0,-100.00,NNW,344,6.0,26.0,66,0.00,,,0.00,1.000000,,2013-02-04 08:31:00,
2013-02-03 22:52:00,67.0,55.0,-100.00,East,83,10.0,17.0,65,0.00,,,0.00,1.000000,,2013-02-04 08:52:00,
2013-02-03 23:02:00,67.0,55.0,-100.00,East,83,10.0,17.0,65,0.00,,,0.00,1.000000,,2013-02-04 09:02:00,
2013-02-03 23:11:00,67.0,55.0,-100.00,East,83,10.0,17.0,65,0.00,,,0.00,1.000000,,2013-02-04 09:11:00,
2013-02-03 23:21:00,67.0,55.0,-100.00,East,83,10.0,17.0,65,0.00,,,0.00,1.000000,,2013-02-04 09:21:00,
2013-02-03 23:31:00,67.0,55.0,-100.00,East,83,10.0,17.0,65,0.00,,,0.00,1.000000,,2013-02-04 09:31:00,
2013-02-03 23:52:00,67.0,56.0,-100.00,East,85,22.0,32.0,67,0.00,,,0.00,1.000000,,2013-02-04 09:52:00,